PALAPA 1

Satellite information

Favourite Embed

Satellite Type and Status

PAYLOADIN ORBIT

Key statistics

Satellite PALAPA 1 at a glance.

Uptime

18017

Days in orbit

Revolutions

≈ 1.0

Per day

Orbit

OTHER

Other

Inclination

8.4

Latest

Satellite identification and parameters

Extended collection of information and parameters for PALAPA 1.

Object identification

Identified? True

Debris? False

Object name: PALAPA 1

International designator: 1976-066A

Object number (NORAD): 9009

Object ID (CCSDS): 9009

Country: INDONESIA (INDO)

Current information (Y/N): Y

RCS size: LARGE

Orbital parameters

Period: 1438.512 minutes

Inclination: 8.3675 deg

SMA: 42211.992 km

Apoapsis: 35857.576 km

Periapsis: 35810.138 km

RAAN: 306.5791 deg

Eccentricy: 0.0005619

Argument of periapsis: 250.0676 deg

Mean anomaly: 270.4639 deg

Mean motion: 1.00103437 rev/day

Mean motion (dot): 0.00000078 rev/day2

B* drag term: 0.0 1/REarth

Two-line elements (TLE)

Creation date: Nov. 4, 2025, 11:56 p.m.

Reference frame: TEME

Reference center: EARTH

Epoch: Nov. 4, 2025, 3:28 p.m. UTC

TLE line 0: 0 PALAPA 1

TLE line 1: 1 9009U 76066A 25308.64500477 .00000078 00000-0 00000+0 0 9998

TLE line 2: 2 9009 8.3675 306.5791 0005619 250.0676 270.4639 1.00103437125690

Live tracking on map

Real-time ground track for satellite PALAPA 1.

In-orbit conjunctions

A list of the most updated potential collisions computed for object PALAPA 1.

Target Orbit TCA Probability of collision Miss distance Type
SL-12 R/B(2) GEO 2025-01-02 12:46:32 TBA 3788.0 (m) ROCKET BODY

Associated space launch

Indonesia communications satellite

PALAPA 1 was lifted into orbit during the mission ‘Delta 2914 | Palapa A1’, on board a Delta 2914 space rocket.

The launch took place on July 8, 1976, 11:31 p.m. from Space Launch Complex 17A.

For more information about the launch, click the button.

Launch to space Delta 2914 | Palapa A1
Delta 2914 | Palapa A1

Agency: N/A

Status: Launch Successful

Launch date: July 8, 1976, 11:31 p.m. UTC

Rocket: Delta 2914

Launch pad: Space Launch Complex 17A

Location: Cape Canaveral SFS, FL, USA

...

Latest news about this satellite

There are no fresh news available about this satellite. Check back as we update our databases every day.


Newsletter sign-up

Weekly statistics, charts and insights to help you stay on top of the space industry.